www.pogodaiklimat.ru

Погода и климат >> Архив погоды >> Малайзия >> Kuala Trengganu


ПОГОДА в Kuala Trengganu

  • Прогноз погоды в Kuala Trengganu
  • Монитор погоды в Kuala Trengganu
  • Климат города

АРХИВ ПОГОДЫ в Kuala Trengganu

Время (UTC), дата Ветер
(напр.,м/с)
 
Видим.   Явления Облачность Т
(С)
Тd
(С)
f
(%)
Тe
(С)
Тes
(С)
Комфортность P
(гПа)
Po
(гПа)
Тmin
(С)
Tmax
(С)
R
(мм)
R24
(мм)
S
(см)
00 7.12 З 2 8000 м слабый дождь 9/6 180 м
[Sc Ac As]
+25.0 +24.5 97 +35 +35 очень
душно
1010.1 1009.4 +24.4 25
06 7.12 С 4 18 км {дождь} 9/3 540 м
[Cu med, cong Ac trans Ci sp]
+29.0 +25.2 80 +42 +47 опасность
перегрева
1009.4 1008.7 0.4
12 7.12 СЗ 3 15 км 9/3 600 м
[Sc Ac trans Ci fib]
+27.3 +24.4 84 +38 +38 очень
душно
1009.5 1008.8 +29.1
18 7.12 З 1 10 км в посл. час дождь 9/3 660 м
[Sc Ac As Ci sp]
+25.4 +24.2 93 +35 +35 очень
душно
1010.4 1009.7 2
00 8.12 ЮЗ 2 18 км слабый дождь 9/4 240 м
[Cu Sc As op]
+25.1 +24.7 98 +35 +36 очень
душно
1010.1 1009.4 +24.5 10
06 8.12 В 3 20 км 9/4 600 м
[Cu hum Ac trans Ci fib]
+31.0 +25.5 73 +46 +51 опасность
перегрева
1009.5 1008.8 0.2
12 8.12 В 2 14 км мгла 9/4 600 м
[Cu med, cong Ac As Ci sp]
+28.5 +25.3 83 +42 +42 опасность
перегрева
1009.8 1009.1 +31.6
18 8.12 ЮЗ 2 12 км мгла 9/4 600 м
[Sc Ac trans Ci fib]
+25.5 +24.5 94 +36 +36 очень
душно
1010.5 1009.8
00 9.12 ЮЗ 2 9000 м осадки на расстоянии 9/4 240 м
[Cb cap Ac cuf Ci ing]
+25.1 +24.5 96 +35 +35 очень
душно
1010.6 1009.9 +24.8 0.2
06 9.12 СВ 4 18 км мгла 9/4 500 м
[Cb cap Ac cuf Ci ing]
+31.4 +26.1 74 +47 +51 опасность
перегрева
1009.6 1008.9
12 9.12 С 2 14 км мгла 9/4 600 м
[Sc diur, vesp Ac und Ci sp]
+27.7 +25.4 87 +40 +40 очень
душно
1009.1 1008.4 +31.6
18 9.12 ЮЗ 2 9000 м слабый дождь 9/5 240 м
[Sc Ac As]
+25.9 +25.3 96 +37 +37 очень
душно
1009.6 1008.9 0.2
00 10.12 ЮЗ 2 15 км осадки на расстоянии {дождь} 9/5 300 м
[Cb cap Ac und Ci sp]
+25.3 +24.7 96 +36 +36 очень
душно
1009.5 1008.8 +24.8 22
06 10.12 В 2 25 км 9/5 500 м
[Cb cap Ac und Ci sp]
+30.9 +25.4 73 +45 +50 опасность
перегрева
1009.4 1008.7 1
12 10.12 З 1 10 км {дождь} 9/3 660 м
[Sc Ac lent Ci sp]
+25.6 +24.8 95 +36 +36 очень
душно
1009.9 1009.2 +31.3 21
18 10.12 ЮЗ 2 7000 м слабый дождь 9/5 240 м
[Sc Ac und Ci sp]
+25.1 +24.7 98 +35 +35 очень
душно
1010.4 1009.7 2
00 11.12 Ю 2 5000 м дождь 9/8 120 м
[Sc As op]
+24.9 +24.8 99 +35 +35 очень
душно
1010.7 1010.0 +24.8 48
06 11.12 З 2 12 км слабый дождь 9/6 300 м
[Sc Ac As]
+28.2 +25.9 87 +42 +45 опасность
перегрева
1010.1 1009.4 28
12 11.12 В 2 8000 м слабый дождь 10/5 240 м
[Sc As op]
+26.3 +25.1 93 +38 +38 очень
душно
1010.2 1009.5 +29.2 20
18 11.12 ЮЗ 2 9000 м слабый дождь 9/5 240 м
[Sc As op]
+24.9 +24.6 98 +35 +35 очень
душно
1010.8 1010.1 2
00 12.12 штиль 0 12 км в посл. час дождь 9/5 240 м
[Sc Ac As]
+25.5 +25.0 97 +36 +37 очень
душно
1011.1 1010.4 +24.6 51
06 12.12 СВ 5 8000 м слабый ливневой дождь, в посл. час гроза 9/6 240 м
[Cb cap As op]
+27.8 +25.6 88 +41 +42 опасность
перегрева
1010.5 1009.8 13
12 12.12 СВ 4 2000 м гроза, ливневой дождь 10/6 150 м
[Cb cap As op]
+25.5 +24.9 96 +36 +36 очень
душно
1010.8 1010.1 +28.2 44
18 12.12 СВ 4 12 км гроза, ливневой дождь 9/6 480 м
[Cb cap As op]
+27.4 +25.4 89 +40 +40 очень
душно
1011.0 1010.3 17
00 13.12 СВ 5 12 км осадки на расстоянии 9/5 240 м
[Sc Ac As]
+28.2 +25.0 83 +41 +41 опасность
перегрева
1011.6 1010.9 +24.8 73
06 13.12 СВ 5 18 км мгла 9/4 540 м
[Cu med, cong Ac As Ci sp]
+30.7 +25.5 74 +45 +48 опасность
перегрева
1011.5 1010.8 0.2
12 13.12 СВ 3 12 км мгла 9/4 600 м
[Sc Ac lent Ci sp]
+28.4 +25.2 83 +41 +41 опасность
перегрева
1011.9 1011.2 +31.1
18 13.12 В 2 12 км мгла 9/5 600 м
[Sc Ac As]
+26.4 +23.9 86 +36 +36 очень
душно
1011.8 1011.1

 

Местоположение метеостанции Kuala Trengganu (Малайзия): широта 5.38 долгота 103.10 высота над уровнем моря 6 м.

В архиве по умолчанию представлена погода в Kuala Trengganu за последнюю неделю. Архивные данные за месяц целиком и за предыдущие месяцы, начиная с января 2011 года, Вы можете получить, выбрав интересующий диапазон дат из раскрывающегося списка и нажав кнопку "Ввод!".


*Определитесь, кто Вы:
робот инопланетянин человек

Внимание! Время в таблицах - всемирное. Для получения местного времени необходимо прибавить поправку, которая в Kuala Trengganu равна 7 ч.

Смотрите также архив погоды в соседних городах и на ближайших метеорологических станциях:

Погода в Mersing (Малайзия) (81 км)
Погода в Kota Bharu (Малайзия) (126 км)
Погода в Kuantan (Малайзия) (178 км)
Погода в Narathiwat (Таиланд) (184 км)
Погода в Cameron Highlands (Малайзия) (217 км)
Погода в Yala Agromet (Таиланд) (238 км)
Погода в Ipoh (Малайзия) (239 км)
Погода в Pattani (Таиланд) (266 км)
Погода в Sitiawan (Малайзия) (296 км)
Погода в Butterworth Air Base (Малайзия) (301 км)

Пояснения к столбцам:

Ветер - указаны скорость ветра в м/с - средняя за 10 мин, порывы в срок и между сроками (в фигурных скобках) и направление, откуда дует ветер: С - северный, СВ - северо-восточный, В - восточный, ЮВ - юго-восточный, Ю - южный, ЮЗ - юго-западный, З - западный, СЗ - северо-западный.
Видимость - горизонтальная дальность видимости в метрах или километрах. При видимости от 1 до 10 км при отсутствии осадков обычно наблюдается дымка, при ухудшении видимости до 1 км и менее - туман. В сухую погоду видимость может ухудшаться дымом, пылью или мглою.
Явления - указаны атмосферные явления, наблюдавшиеся в срок или в последний час перед сроком; фигурными скобками обозначены явления, наблюдавшиеся между сроками (за 1-3 часа до срока); квадратными скобками обозначены град или гололедные отложения с указанием их диаметра в мм.
Облачность - указаны через наклонную черту общая и нижняя облачность в баллах и высота нижней границы облаков в метрах; квадратными скобками обозначены формы облаков: Ci - перистые, Cs - перисто-слоистые, Cc - перисто-кучевые, Ac - высококучевые, As - высокослоистые, Sc - слоисто-кучевые, Ns - слоисто-дождевые, Cu - кучевые, Cb - кучево-дождевые. Подробнее классификацию облаков см. в Атласе облаков (PDF).
T - Температура воздуха - температура, измеренная на высоте 2 м над землей.
Td - Температура точки росы - температура, при понижении до которой содержащийся в воздухе водяной пар достигнет насыщения.
f - Относительная влажность воздуха - влажноcть воздуха, измеренная на высоте 2 м над землей.
Te - Эффективная температура - температура, которую ощущает одетый по сезону человек в тени. Характеристика душности погоды. При расчете учитывается влияние влажности воздуха и скорости ветра на теплоощущения человека.
Tes - Эффективная температура на солнце - температура, которую ощущает человек, с поправкой на солнечный нагрев. Характеристика знойности погоды. Зависит от высоты солнца над горизонтом, облачности и скорости ветра. Ночью, в пасмурную погоду, а также при ветре 12 м/с и более поправка равна нулю.
P - Атмосферное давление - приведенное к уровню моря атмосферное давление.
Po - Атмосферное давление - измеренное на уровне метеостанции атмосферное давление.
Tmin - Минимальная температура - минимум температуры воздуха на высоте 2 м над землей.
Tmax - Максимальная температура - максимум температуры воздуха на высоте 2 м над землей.
R - Количество осадков - Количество выпавших осадков за период времени, мм. При наведении курсора мыши на число - период времени, за который выпало указанное количество осадков.
R24 - Количество осадков - Количество выпавших осадков за 24 часа, мм.
S - Снежный покров - Высота снежного покрова, см. При наведении курсора мыши на число - состояние снежного покрова и степень покрытия местности в баллах.